STARLINK-32714 (62499 NORAD) Tracking and Keplerian Element Data

This shows tracking and keplerian element data for the satellite.

Feedback or suggestion? Click here.




ElementValue
Catalog62499
NameSTARLINK-32714
Epoch Orbit567
Epoch Day35.16668981
Epoch Year2025
RAAN23.7545
Inclination43.0008
Eccentricity0.0001441
Argument of Perigee266.4011
Mean Anonmoly139.0295
Mean Motion15.40745982
Decay Rate-0.00101973
L11 62499U 25003N 25035.16668981 -.00101973 00000+0 -24628-2 0 9996
L22 62499 43.0008 23.7545 0001441 266.4011 139.0295 15.40745982 5675



Live tracking and technical data element details for STARLINK-32714 (NORAD 62499). STARLINK-32714 can be tracked NOW for your location showing map with azimuth and elevation plus other details from your city location.







IsCatalogInMostPopularTable: catalog: 62499, numindb: 12
Update: records affected: 1



GetName: 62499 STARLINK-32714

Hit Count: updated at: Sun, 18 May 2025 22:27:17 GMT